Location: Franzen
(48.6167°N, 15.3833°E)
Time: 02:14:36
(UTC+00:00)

Cosmos 1655 Rocket - Pass Details

Date: 30 July 2021
Orbit: 969 x 1007 km, 82.9° (Epoch: 18 September)

Event Time Altitude Azimuth Distance (km) Brightness Sun altitude
Exits shadow 22:41:32 10° 240° (WSW) 2,778 6.1 -22.9°
Reaches altitude 10° 22:41:34 10° 240° (WSW) 2,770 6.1 -22.9°
Maximum altitude 22:46:44 26° 295° (WNW) 1,887 5.8 -23.0°
Drops below altitude 10° 22:51:58 10° 350° (N) 2,795 7.5 -23.1°
Sets 22:55:01 0° 3° (N) 3,750 8.5 -23.1°
